Waarnemingen

Advertentie
Mijn weer
Laupheim, Duitsland (10837): temperatuur & dauwpunt: 17.04.2018 00:00:00 - 23.04.2018 00:00:00 (CEST)Laupheim, Duitsland (10837): temperatuur -5cm: 17.04.2018 00:00:00 - 23.04.2018 00:00:00 (CEST)Laupheim, Duitsland (10837): temperatuur -20cm & temperatuur -100cm: 17.04.2018 00:00:00 - 23.04.2018 00:00:00 (CEST)Laupheim, Duitsland (10837): windsnelheid: 17.04.2018 00:00:00 - 23.04.2018 00:00:00 (CEST)Laupheim, Duitsland (10837): windrichting: 17.04.2018 00:00:00 - 23.04.2018 00:00:00 (CEST)Laupheim, Duitsland (10837): luchtdruk: 17.04.2018 00:00:00 - 23.04.2018 00:00:00 (CEST)Laupheim, Duitsland (10837): zicht: 17.04.2018 00:00:00 - 23.04.2018 00:00:00 (CEST)
Datum & Tijd tt [°C] td [°C] tt -5cm [°C] tt -20cm [°C] tt -100cm [°C] ff [km/u] ff [kn] dd ppp [hPa] vv [km]
23.04.2018 00:00:00 17,1 7,5 - - - 11 6 ZW 1014,9 25
22.04.2018 23:00:00 16,4 8,3 - - - 7 4 WZW 1014,9 25
22.04.2018 22:00:00 18,9 7,9 - - - 11 6 Z 1013,8 30
22.04.2018 21:00:00 19,8 8,4 - - - 11 6 Z 1013,3 30
22.04.2018 20:00:00 21,8 8,5 - - - 7 4 Z 1012,4 35
22.04.2018 19:00:00 23,0 7,5 - - - 7 4 N 1012,2 30
22.04.2018 18:00:00 22,3 8,4 - - - 11 6 NW 1012,5 35
22.04.2018 17:00:00 24,1 7,0 - - - 14 8 WNW 1012,1 30
22.04.2018 16:00:00 25,5 5,7 - - - 18 10 ZW 1012,1 27
22.04.2018 15:00:00 25,3 6,4 - - - 18 10 ZW 1012,9 35
22.04.2018 14:00:00 24,4 7,5 - - - 18 10 ZW 1013,6 30
22.04.2018 13:00:00 23,6 8,9 - - - 18 10 W 1014,3 30
22.04.2018 12:00:00 21,9 8,5 - - - 14 8 ZW 1015,1 30
22.04.2018 11:00:00 20,0 7,3 - - - 14 8 ZW 1015,7 28
22.04.2018 10:00:00 17,7 7,9 - - - 14 8 ZW 1016,3 28
22.04.2018 09:00:00 14,7 7,8 - - - 11 6 WZW 1017,0 25
22.04.2018 08:00:00 11,6 7,9 - - - 4 2 N 1017,8 25
22.04.2018 07:00:00 9,5 7,3 - - - 4 2 N 1018,1 20
22.04.2018 06:00:00 9,7 7,8 - - - 4 2 ZZO 1018,1 20
22.04.2018 05:00:00 10,2 7,7 - - - 7 4 ZW 1018,2 18
22.04.2018 04:00:00 11,2 8,2 - - - 4 2 ZW 1018,0 15
22.04.2018 03:00:00 12,3 8,9 - - - 4 2 OZO 1018,1 15
22.04.2018 02:00:00 13,2 8,8 - - - 4 2 O 1018,3 20
22.04.2018 01:00:00 13,7 9,2 - - - 4 2 W 1018,5 20
22.04.2018 00:00:00 15,3 8,5 - - - 4 2 ZO 1017,9 25
21.04.2018 23:00:00 17,2 7,7 - - - 4 2 ONO 1017,4 25
21.04.2018 22:00:00 18,9 8,2 - - - 7 4 O 1017,0 25
21.04.2018 21:00:00 19,9 8,6 - - - 7 4 NNO 1016,5 25
21.04.2018 20:00:00 22,2 9,5 - - - 7 4 NO 1015,5 30
21.04.2018 19:00:00 23,6 9,0 - - - 11 6 NO 1015,4 30
21.04.2018 18:00:00 24,8 9,1 - - - 7 4 NO 1015,4 30
21.04.2018 17:00:00 25,3 6,7 - - - 7 4 N 1015,8 30
21.04.2018 16:00:00 25,5 6,0 - - - 4 2 ZW 1016,3 30
21.04.2018 15:00:00 24,7 7,7 - - - 11 6 Z 1017,2 30
21.04.2018 14:00:00 24,4 8,3 - - - 7 4 OZO 1017,7 30
21.04.2018 13:00:00 23,3 6,6 - - - 7 4 N 1018,4 30
21.04.2018 12:00:00 21,8 8,9 - - - 11 6 Z 1019,4 30
21.04.2018 11:00:00 19,7 8,7 - - - 11 6 ZW 1020,1 30
21.04.2018 10:00:00 16,9 7,3 - - - 14 8 ZZW 1020,6 30
21.04.2018 09:00:00 14,0 7,4 - - - 7 4 ZW 1021,1 25
21.04.2018 08:00:00 12,1 6,9 - - - 7 4 ZZW 1021,4 20
21.04.2018 07:00:00 9,6 7,1 - - - 7 4 ZZW 1021,7 20
21.04.2018 06:00:00 9,6 6,5 - - - 7 4 ZW 1021,6 20
21.04.2018 05:00:00 10,8 7,0 - - - 7 4 ZW 1021,3 20
21.04.2018 04:00:00 10,5 7,1 - - - 11 6 ZW 1021,6 25
21.04.2018 03:00:00 11,8 7,5 - - - 4 2 ZZW 1021,3 25
21.04.2018 02:00:00 11,9 7,5 - - - 4 2 ZZW 1021,6 25
21.04.2018 01:00:00 13,4 8,2 - - - 7 4 ZZW 1021,7 30
21.04.2018 00:00:00 13,9 8,1 - - - 4 2 ZZW 1021,6 30
20.04.2018 23:00:00 15,1 8,4 - - - 4 2 W 1021,4 30
20.04.2018 22:00:00 17,9 8,6 - - - 7 4 O 1020,9 30
20.04.2018 21:00:00 19,8 8,2 - - - 7 4 O 1020,4 30
20.04.2018 20:00:00 23,3 4,7 - - - 4 2 NNO 1019,3 30
20.04.2018 19:00:00 24,4 5,3 - - - 4 2 N 1019,2 30
20.04.2018 18:00:00 24,8 6,7 - - - 4 2 NO 1019,4 30
20.04.2018 17:00:00 24,8 7,4 - - - 7 4 ZW 1019,9 30
20.04.2018 16:00:00 24,0 8,1 - - - 7 4 NO 1020,6 30
20.04.2018 15:00:00 23,2 7,8 - - - 4 2 ZO 1021,4 30
20.04.2018 14:00:00 22,7 10,1 - - - 4 2 WNW 1021,8 30
20.04.2018 13:00:00 21,0 9,0 - - - 4 2 ZW 1022,7 30
20.04.2018 12:00:00 19,3 7,7 - - - 4 2 N 1023,3 25
20.04.2018 11:00:00 17,1 7,3 - - - 4 2 W 1024,2 20
20.04.2018 10:00:00 14,5 7,0 - - - 4 2 O 1024,7 20
20.04.2018 09:00:00 12,2 6,5 - - - 4 2 N 1025,3 20
20.04.2018 08:00:00 11,8 6,7 - - - 4 2 N 1025,3 20
20.04.2018 07:00:00 7,1 4,1 - - - 4 2 WZW 1026,2 20
20.04.2018 06:00:00 8,9 4,7 - - - 7 4 O 1025,5 20
20.04.2018 05:00:00 9,1 4,4 - - - 7 4 O 1025,7 20
20.04.2018 04:00:00 9,9 4,8 - - - 7 4 NO 1025,9 20
20.04.2018 03:00:00 10,4 4,3 - - - 7 4 NNO 1026,0 20
20.04.2018 02:00:00 11,7 4,1 - - - 7 4 NNO 1026,2 20
20.04.2018 01:00:00 12,7 3,9 - - - 7 4 NNO 1026,3 20
20.04.2018 00:00:00 14,4 3,9 - - - 11 6 ONO 1026,1 20
19.04.2018 23:00:00 16,5 3,7 - - - 11 6 O 1025,9 20
19.04.2018 22:00:00 17,7 4,6 - - - 11 6 O 1025,7 30
19.04.2018 21:00:00 18,8 4,9 - - - 7 4 ONO 1025,2 30
19.04.2018 20:00:00 20,9 4,4 - - - 11 6 O 1024,5 30
19.04.2018 19:00:00 22,3 5,2 - - - 14 8 ONO 1024,1 30
19.04.2018 18:00:00 23,4 3,8 - - - 18 10 O 1024,2 30
19.04.2018 17:00:00 23,5 3,8 - - - 18 10 O 1024,2 30
19.04.2018 16:00:00 23,3 5,3 - - - 22 12 O 1024,8 30
19.04.2018 15:00:00 23,1 4,8 - - - 18 10 O 1025,3 30
19.04.2018 14:00:00 21,8 6,0 - - - 18 10 O 1026,2 30
19.04.2018 13:00:00 20,7 5,0 - - - 25 14 O 1026,7 30
19.04.2018 12:00:00 19,2 5,2 - - - 18 10 O 1027,4 30
19.04.2018 11:00:00 17,1 5,6 - - - 11 6 ONO 1028,0 20
19.04.2018 10:00:00 14,5 6,6 - - - 7 4 N 1028,6 18
19.04.2018 09:00:00 12,2 6,5 11,5 11,9 9,2 4 2 NNO 1029,4 18
19.04.2018 08:00:00 9,5 6,5 - - - 7 4 N 1029,9 18
19.04.2018 07:00:00 7,8 5,5 - - - 7 4 NNO 1030,0 18
19.04.2018 06:00:00 7,7 4,5 - - - 7 4 NNO 1029,7 18
19.04.2018 05:00:00 8,7 4,2 - - - 11 6 NO 1029,4 20
19.04.2018 04:00:00 10,1 4,2 - - - 11 6 NNO 1029,4 20
19.04.2018 03:00:00 11,7 3,9 - - - 11 6 ONO 1029,3 25
19.04.2018 02:00:00 13,5 4,0 - - - 14 8 O 1029,3 25
19.04.2018 01:00:00 13,8 3,9 - - - 14 8 O 1029,6 30
19.04.2018 00:00:00 13,6 3,1 - - - 11 6 ONO 1029,7 30
18.04.2018 23:00:00 14,3 3,3 - - - 7 4 ONO 1029,7 30
18.04.2018 22:00:00 15,7 3,8 - - - 14 8 ONO 1029,3 30
18.04.2018 21:00:00 17,7 3,2 - - - 18 10 O 1028,7 30
18.04.2018 20:00:00 18,9 2,7 - - - 18 10 ONO 1028,2 25
18.04.2018 19:00:00 20,5 1,3 - - - 29 16 ONO 1027,9 25
18.04.2018 18:00:00 21,0 3,6 - - - 29 16 ONO 1027,8 25
18.04.2018 17:00:00 21,4 4,7 - - - 25 14 ONO 1028,2 25
18.04.2018 16:00:00 21,3 4,5 21,9 14,3 - 29 16 ONO 1028,3 30
18.04.2018 15:00:00 21,2 4,5 - - - 22 12 ONO 1028,7 30
18.04.2018 14:00:00 20,2 4,4 - - - 29 16 O 1029,1 30
18.04.2018 13:00:00 19,9 6,4 - - - 29 16 O 1029,3 30
18.04.2018 12:00:00 19,1 5,9 - - - 25 14 O 1029,8 29
18.04.2018 11:00:00 17,3 7,7 - - - 18 10 O 1030,2 18
18.04.2018 10:00:00 15,1 9,0 - - - 7 4 NO 1030,8 15
18.04.2018 09:00:00 11,4 8,2 10,9 11,2 8,9 7 4 NO 1031,5 12
18.04.2018 08:00:00 9,3 6,6 - - - 4 2 WNW 1031,9 11
18.04.2018 07:00:00 6,3 4,8 - - - 4 2 ONO 1032,1 11
18.04.2018 06:00:00 5,5 4,1 - - - 7 4 ONO 1032,1 12
18.04.2018 05:00:00 6,2 4,8 - - - 4 2 N 1031,5 10
18.04.2018 04:00:00 7,0 5,3 - - - 4 2 NO 1031,3 10
18.04.2018 03:00:00 7,3 5,0 - - - 4 2 NO 1031,2 12
18.04.2018 02:00:00 9,2 5,7 - - - 0 0 N 1030,6 15
18.04.2018 01:00:00 10,1 5,7 - - - 4 2 ZZO 1029,9 15
18.04.2018 00:00:00 12,3 5,1 - - - 4 2 NW 1029,2 15
17.04.2018 23:00:00 13,2 5,1 - - - 4 2 N 1028,5 20
17.04.2018 22:00:00 13,3 4,9 - - - 7 4 O 1028,3 20
17.04.2018 21:00:00 15,3 5,1 - - - 7 4 O 1026,9 30
17.04.2018 20:00:00 17,8 4,8 - - - 11 6 O 1025,4 35
17.04.2018 19:00:00 18,7 4,1 - - - 14 8 O 1024,7 35
17.04.2018 18:00:00 19,4 5,0 - - - 14 8 ONO 1024,2 35
17.04.2018 17:00:00 19,5 5,3 - - - 14 8 NO 1024,0 40
17.04.2018 16:00:00 19,1 4,4 21,4 14,1 - 7 4 O 1024,0 40
17.04.2018 15:00:00 19,4 5,7 - - - 11 6 ONO 1024,1 40
17.04.2018 14:00:00 18,7 5,1 - - - 7 4 NO 1024,4 35
17.04.2018 13:00:00 17,9 6,2 - - - 11 6 O 1024,4 30
17.04.2018 12:00:00 17,1 7,7 - - - 11 6 O 1024,7 28
17.04.2018 11:00:00 14,8 8,5 - - - 7 4 NO 1025,2 18
17.04.2018 10:00:00 12,9 8,7 - - - 4 2 N 1024,9 18
17.04.2018 09:00:00 10,9 9,2 10,6 10,5 8,8 4 2 W 1024,6 8
17.04.2018 08:00:00 9,2 8,7 - - - 4 2 ZZW 1024,6 2,0
17.04.2018 07:00:00 6,2 6,1 - - - 4 2 ZO 1024,5 -
17.04.2018 06:00:00 6,7 6,5 - - - 4 2 ZW 1023,9 0,3
17.04.2018 05:00:00 7,7 7,5 - - - 7 4 ZW 1023,2 3,5
17.04.2018 04:00:00 8,2 7,9 - - - 4 2 WZW 1022,5 12
17.04.2018 03:00:00 9,4 8,7 - - - 4 2 Z 1022,0 15
17.04.2018 02:00:00 10,6 8,9 - - - 7 4 ZW 1021,6 15
17.04.2018 01:00:00 10,9 8,2 - - - 7 4 WZW 1021,3 20
17.04.2018 00:00:00 11,4 8,1 - - - 7 4 WZW 1020,7 20

tt = temperatuur
td = dauwpunt
tt -5cm = temperatuur -5cm
tt -20cm = temperatuur -20cm
tt -100cm = temperatuur -100cm
ff = windsnelheid
dd = windrichting
ppp = luchtdruk
vv = zicht

Weerstations in de omgeving